| time (UTC) | temp F | wind direction | speed MPH | gust MPH | rain 1hr in | rain 24hr in | rain mn in | humidity % | barometer mb |
| 20260505210036 | 73 | 224 | 5.0 | 12.0 | 0.00 | 0.00 | 0.00 | 51 | 1015.8 |
| 20260505204533 | 73 | 217 | 6.0 | 12.0 | 0.00 | 0.00 | 0.00 | 50 | 1015.9 |
| 20260505203038 | 73 | 215 | 6.0 | 13.0 | 0.00 | 0.00 | 0.00 | 50 | 1016.0 |
| 20260505201532 | 72 | 210 | 5.0 | 14.0 | 0.00 | 0.00 | 0.00 | 51 | 1016.0 |
| 20260505200036 | 72 | 216 | 6.0 | 13.0 | 0.00 | 0.00 | 0.00 | 51 | 1016.1 |
| 20260505194609 | 71 | 222 | 6.0 | 15.0 | 0.00 | 0.00 | 0.00 | 52 | 1016.2 |
| 20260505193032 | 71 | 213 | 6.0 | 13.0 | 0.00 | 0.00 | 0.00 | 52 | 1016.3 |
| 20260505191605 | 70 | 220 | 6.0 | 14.0 | 0.00 | 0.00 | 0.00 | 52 | 1016.3 |
| 20260505190036 | 70 | 221 | 6.0 | 14.0 | 0.00 | 0.00 | 0.00 | 52 | 1016.5 |
| 20260505184534 | 70 | 214 | 6.0 | 14.0 | 0.00 | 0.00 | 0.00 | 53 | 1016.6 |
| 20260505183032 | 69 | 213 | 5.0 | 15.0 | 0.00 | 0.00 | 0.00 | 54 | 1016.6 |
| 20260505181530 | 68 | 224 | 6.0 | 12.0 | 0.00 | 0.00 | 0.00 | 55 | 1016.6 |
| 20260505180030 | 67 | 216 | 6.0 | 13.0 | 0.00 | 0.00 | 0.00 | 56 | 1016.6 |
| 20260505174611 | 66 | 218 | 6.0 | 15.0 | 0.00 | 0.00 | 0.00 | 56 | 1016.6 |
| 20260505173032 | 66 | 215 | 7.0 | 14.0 | 0.00 | 0.00 | 0.00 | 57 | 1016.6 |
| 20260505164535 | 64 | 212 | 6.0 | 14.0 | 0.00 | 0.00 | 0.00 | 60 | 1016.6 |
| 20260505163036 | 63 | 216 | 6.0 | 14.0 | 0.00 | 0.00 | 0.00 | 61 | 1016.5 |
| 20260505161536 | 63 | 216 | 6.0 | 15.0 | 0.00 | 0.00 | 0.00 | 61 | 1016.6 |
| 20260505150143 | 59 | 209 | 4.0 | 12.0 | 0.00 | 0.00 | 0.00 | 70 | 1016.5 |
| 20260505124536 | 56 | 200 | 4.0 | 7.0 | 0.00 | 0.00 | 0.00 | 78 | 1015.9 |
| 20260505123037 | 56 | 203 | 4.0 | 9.0 | 0.00 | 0.00 | 0.00 | 78 | 1015.9 |
| 20260505121535 | 56 | 208 | 4.0 | 11.0 | 0.00 | 0.00 | 0.00 | 77 | 1015.9 |
| 20260505114534 | 57 | 200 | 5.0 | 13.0 | 0.00 | 0.00 | 0.00 | 77 | 1015.8 |
| 20260505113035 | 57 | 207 | 5.0 | 15.0 | 0.00 | 0.00 | 0.00 | 76 | 1015.6 |
| 20260505101536 | 58 | 218 | 4.0 | 13.0 | 0.00 | 0.00 | 0.00 | 75 | 1015.2 |
| 20260505100046 | 59 | 204 | 4.0 | 12.0 | 0.00 | 0.00 | 0.00 | 75 | 1015.1 |
| 20260505094536 | 59 | 205 | 4.0 | 10.0 | 0.00 | 0.00 | 0.00 | 75 | 1015.0 |
| 20260505091536 | 60 | 206 | 5.0 | 12.0 | 0.00 | 0.00 | 0.00 | 74 | 1014.9 |
| 20260505083031 | 61 | 211 | 4.0 | 10.0 | 0.00 | 0.00 | 0.00 | 72 | 1014.6 |
| 20260505081536 | 61 | 212 | 4.0 | 10.0 | 0.00 | 0.00 | 0.00 | 72 | 1014.5 |
| 20260505080037 | 61 | 209 | 4.0 | 11.0 | 0.00 | 0.00 | 0.00 | 72 | 1014.6 |
| 20260505074533 | 62 | 200 | 1.0 | 8.0 | 0.00 | 0.00 | 0.00 | 71 | 1014.5 |
| 20260505071537 | 62 | 204 | 2.0 | 11.0 | 0.00 | 0.00 | 0.00 | 71 | 1014.3 |
| 20260505070036 | 62 | 201 | 3.0 | 11.0 | 0.00 | 0.00 | 0.00 | 71 | 1014.3 |
| 20260505061535 | 62 | 245 | 2.0 | 8.0 | 0.00 | 0.00 | 0.00 | 69 | 1014.2 |
| 20260505060029 | 62 | 322 | 0.0 | 6.0 | 0.00 | 0.00 | 0.00 | 68 | 1014.3 |
| 20260505054541 | 62 | 199 | 1.0 | 7.0 | 0.00 | 0.00 | 0.00 | 67 | 1014.2 |
| 20260505053037 | 63 | 143 | 1.0 | 7.0 | 0.00 | 0.00 | 0.00 | 65 | 1014.1 |
| 20260505051538 | 64 | 187 | 2.0 | 6.0 | 0.00 | 0.00 | 0.00 | 63 | 1014.1 |
| 20260505033035 | 66 | 238 | 1.0 | 6.0 | 0.00 | 0.00 | 0.00 | 51 | 1012.8 |
| 20260505031534 | 67 | 268 | 1.0 | 5.0 | 0.00 | 0.00 | 0.00 | 49 | 1012.6 |
| 20260505030145 | 68 | 276 | 0.0 | 8.0 | 0.00 | 0.00 | 0.00 | 47 | 1012.4 |
| 20260505024532 | 70 | 262 | 1.0 | 7.0 | 0.00 | 0.00 | 0.00 | 46 | 1012.2 |
| 20260505023044 | 72 | 237 | 2.0 | 8.0 | 0.00 | 0.00 | 0.00 | 44 | 1012.0 |
| 20260505020036 | 74 | 239 | 3.0 | 12.0 | 0.00 | 0.00 | 0.00 | 42 | 1011.8 |
| 20260505014609 | 75 | 226 | 2.0 | 8.0 | 0.00 | 0.00 | 0.00 | 41 | 1011.8 |
| 20260505013036 | 76 | 216 | 4.0 | 11.0 | 0.00 | 0.00 | 0.00 | 40 | 1011.8 |
| 20260505011536 | 77 | 218 | 5.0 | 13.0 | 0.00 | 0.00 | 0.00 | 38 | 1011.7 |
| 20260505010038 | 77 | 216 | 5.0 | 12.0 | 0.00 | 0.00 | 0.00 | 37 | 1011.7 |
| 20260505004610 | 78 | 211 | 6.0 | 14.0 | 0.00 | 0.00 | 0.00 | 36 | 1011.7 |
| 20260505003036 | 79 | 208 | 5.0 | 12.0 | 0.00 | 0.00 | 0.00 | 35 | 1011.7 |
| 20260505001537 | 79 | 220 | 5.0 | 13.0 | 0.00 | 0.00 | 0.00 | 35 | 1011.7 |
| 20260505000111 | 80 | 217 | 5.0 | 11.0 | 0.00 | 0.00 | 0.00 | 34 | 1011.7 |
| 20260504234610 | 80 | 217 | 6.0 | 13.0 | 0.00 | 0.00 | 0.00 | 34 | 1011.6 |
| 20260504233037 | 80 | 210 | 6.0 | 14.0 | 0.00 | 0.00 | 0.00 | 34 | 1011.5 |
| 20260504231535 | 81 | 219 | 6.0 | 11.0 | 0.00 | 0.00 | 0.00 | 33 | 1011.5 |
| 20260504230107 | 81 | 215 | 5.0 | 13.0 | 0.00 | 0.00 | 0.00 | 33 | 1011.6 |
| 20260504224536 | 81 | 208 | 5.0 | 13.0 | 0.00 | 0.00 | 0.00 | 33 | 1011.6 |
| 20260504223032 | 81 | 211 | 5.0 | 13.0 | 0.00 | 0.00 | 0.00 | 33 | 1011.8 |
| 20260504221537 | 81 | 191 | 4.0 | 13.0 | 0.00 | 0.00 | 0.00 | 33 | 1011.7 |
| 20260504220111 | 81 | 183 | 5.0 | 14.0 | 0.00 | 0.00 | 0.00 | 33 | 1011.8 |
| 20260504214536 | 80 | 191 | 6.0 | 14.0 | 0.00 | 0.00 | 0.00 | 33 | 1011.9 |
| 20260504213032 | 81 | 203 | 6.0 | 14.0 | 0.00 | 0.00 | 0.00 | 33 | 1012.0 |
| 20260504211643 | 81 | 200 | 6.0 | 11.0 | 0.00 | 0.00 | 0.00 | 34 | 1012.0 |